Regional Weather Roundup
Issued by NWS Goodland, KS

Home | Current Version | Previous Version | Graphics & Text | Print | Product List | Glossary On
Versions: 1 2 3 4 5 6 7 8 9 10 11 12 13 14 15 16 17 18 19 20 21 22 23 24 25 26 27 28 29 30 31 32 33 34 35 36 37 38 39 40 41 42 43 44 45 46 47 48 49 50
000
ASUS43 KGLD 250159
RWRGLD

GOODLAND FORECAST AREA HOURLY WEATHER ROUNDUP
NATIONAL WEATHER SERVICE GOODLAND KS
800 PM MDT SAT JUN 24 2017

...OFFICIAL OBSERVATIONS...

CITY           SKY/WX    TMP DP  RH WIND       PRES   REMARKS
GOODLAND KS    CLOUDY    69  55  60 E8        30.24R
HILL CITY KS   CLOUDY    71  50  47 NE6       30.24R
IMPERIAL NEB   CLEAR     68  47  46 SE5       30.26R
MCCOOK NEB     PTCLDY    66  52  60 SE5       30.24R
AKRON CO       CLEAR     66  48  52 E12       30.29R
BURLINGTON CO  PTCLDY    65  55  70 SE5       30.26R
LIMON CO       MOCLDY    67  45  45 SE10      30.30R
$$

...UNOFFICIAL OBSERVATIONS...

CITY           SKY/WX    TMP DP  RH WIND       PRES   REMARKS
LENORA KS        N/A     69  32  25 MISG        N/A
NORTON KS      MOCLDY    68  45  42 E5        30.23S
SHARON SPRINGS   N/A     72  52  49 SE7         N/A
TRENTON NEB      N/A     67  32  27 SE5         N/A
KIT CARSON CO    N/A     72  48  42 MISG        N/A
YUMA CO        FAIR      64  46  52 E9        30.28R
$$




USA.gov is the U.S. government's official web portal to all federal, state and local government web resources and services.